FW8134 Weather Reports


Display with metric or nautical units.
time (UTC)temp
F
wind
direction
speed
MPH
gust
MPH
rain 1hr
in
rain 24hr
in
rain mn
in
humidity
%
barometer
mb
20260505002537 56 39 3.0 5.0 0.00 0.06 0.00 97 992.2
20260505001518 56 34 2.0 4.0 0.00 0.06 0.00 98 992.3
20260505000519 56 36 3.0 6.0 0.00 0.06 0.00 98 992.2
20260504235515 56 59 0.0 2.0 0.00 0.06 0.00 98 992.2
20260504234517 55 54 1.0 3.0 0.00 0.06 0.00 97 992.2
20260504233518 56 29 1.0 4.0 0.00 0.06 0.00 97 992.2
20260504232519 56 39 1.0 4.0 0.00 0.06 0.00 97 992.2
20260504231535 56 7 2.0 6.0 0.00 0.06 0.00 97 992.3
20260504230516 56 40 4.0 6.0 0.00 0.06 0.00 97 992.4
20260504225537 56 9 2.0 6.0 0.00 0.06 0.00 97 992.6
20260504224518 56 42 2.0 4.0 0.00 0.06 0.00 97 992.7
20260504223520 56 55 2.0 3.0 0.00 0.06 0.00 97 992.9
20260504222521 57 0.0 0.0 0.00 0.06 0.00 97 993.0
20260504221517 57 0.0 0.0 0.00 0.06 0.00 97 993.1
20260504220518 57 48 0.0 1.0 0.00 0.06 0.00 97 993.2
20260504215559 57 27 1.0 3.0 0.00 0.06 0.06 97 993.3
20260504214520 57 9 0.0 2.0 0.00 0.06 0.06 97 993.3
20260504213556 57 0.0 0.0 0.00 0.06 0.06 97 993.4
20260504212538 57 49 0.0 2.0 0.00 0.06 0.06 97 993.4
20260504211519 57 357 0.0 2.0 0.00 0.06 0.06 97 993.5
20260504210520 57 1 1.0 2.0 0.00 0.06 0.06 97 993.5
20260504205516 56 5 0.0 2.0 0.00 0.06 0.06 96 993.5
20260504204518 57 36 0.0 1.0 0.00 0.06 0.06 96 993.5
20260504203520 57 0.0 0.0 0.00 0.06 0.06 96 993.6
20260504202521 57 0.0 0.0 0.00 0.06 0.06 96 993.5
20260504201517 57 0.0 0.0 0.00 0.06 0.06 96 993.6
20260504200518 57 0.0 0.0 0.00 0.06 0.06 96 993.5
20260504195519 57 0.0 0.0 0.00 0.06 0.06 95 993.5
20260504194521 57 0.0 0.0 0.00 0.06 0.06 95 993.5
20260504193517 58 0.0 0.0 0.00 0.06 0.06 95 993.5
20260504192538 58 0.0 0.0 0.00 0.06 0.06 95 993.5
20260504191519 58 0.0 0.0 0.00 0.06 0.06 95 993.5
20260504190515 58 0.0 0.0 0.00 0.06 0.06 95 993.4
20260504185516 58 0.0 0.0 0.01 0.06 0.06 94 993.4
20260504184518 59 0.0 0.0 0.01 0.06 0.06 94 993.4
20260504183539 59 0.0 0.0 0.01 0.06 0.06 94 993.4
20260504182515 59 0.0 0.0 0.01 0.06 0.06 94 993.3
20260504181516 59 0.0 0.0 0.01 0.09 0.06 93 993.3
20260504180517 59 0.0 0.0 0.01 0.13 0.06 93 993.2
20260504175519 59 0.0 0.0 0.00 0.12 0.06 93 993.3
20260504174520 59 0.0 1.0 0.00 0.12 0.06 92 993.2
20260504173516 59 0.0 0.0 0.00 0.12 0.06 92 993.2
20260504172517 59 158 0.0 1.0 0.00 0.12 0.06 90 993.1
20260504171538 60 158 0.0 1.0 0.00 0.12 0.06 89 993.2
20260504170519 60 158 0.0 1.0 0.00 0.12 0.06 89 993.2
20260504150517 62 57 1.0 4.0 0.00 0.12 0.06 84 993.4
20260504140519 63 173 1.0 4.0 0.00 0.12 0.06 83 993.6
20260504130516 63 121 2.0 5.0 0.00 0.12 0.06 83 993.8
20260504110518 61 42 3.0 7.0 0.00 0.20 0.06 85 994.6
20260504100520 61 28 3.0 8.0 0.00 0.20 0.06 90 994.6
20260504081517 56 53 0.0 2.0 0.04 0.20 0.05 99 994.7
20260504080518 56 37 0.0 1.0 0.04 0.20 0.05 99 994.7
20260504050519 52 0.0 0.0 0.00 0.22 0.01 99 993.6
20260504045516 51 0.0 0.0 0.00 0.22 0.01 99 993.6
20260504044517 51 0.0 0.0 0.00 0.22 0.01 99 993.6
20260504043518 51 0.0 0.0 0.00 0.22 0.01 99 993.6
20260504042519 51 0.0 0.0 0.00 0.22 0.01 99 993.6
20260504041521 51 0.0 0.0 0.00 0.23 0.01 99 993.7
20260504040517 51 0.0 0.0 0.00 0.24 0.01 99 993.7
20260504035518 51 0.0 0.0 0.00 0.24 0.01 99 993.7
20260504034519 51 0.0 0.0 0.00 0.25 0.01 99 993.9
20260504033520 51 0.0 0.0 0.00 0.26 0.01 99 993.9
20260504032516 51 0.0 0.0 0.00 0.27 0.01 98 994.0
20260504031517 52 0.0 0.0 0.00 0.28 0.01 98 994.0
20260504030518 52 0.0 0.0 0.00 0.28 0.01 98 994.1
20260504025520 52 0.0 0.0 0.00 0.30 0.01 98 994.0
20260504024516 52 0.0 0.0 0.00 0.31 0.01 98 993.9
20260504023557 52 0.0 0.0 0.00 0.31 0.01 98 993.9
20260504022518 52 0.0 0.0 0.00 0.32 0.01 98 994.0
20260504021519 52 216 0.0 1.0 0.00 0.33 0.01 98 994.0
20260504020516 51 0.0 0.0 0.00 0.33 0.01 98 994.0
20260504015537 51 215 0.0 1.0 0.00 0.33 0.01 98 994.1
20260504014518 51 0.0 0.0 0.00 0.33 0.01 98 994.0
20260504013539 51 216 0.0 1.0 0.00 0.33 0.01 98 993.9
20260504012515 51 0.0 0.0 0.00 0.33 0.01 98 993.9
20260504011537 51 0.0 0.0 0.00 0.33 0.01 98 993.8
20260504010518 51 0.0 0.0 0.00 0.33 0.01 98 993.8
20260504005519 51 215 0.0 1.0 0.00 0.33 0.01 98 993.9
20260504004535 51 0.0 0.0 0.00 0.33 0.01 98 994.0
20260504003517 51 0.0 0.0 0.00 0.33 0.01 98 993.9